Check out our new BloomSky Weather System.

Active alerts

Houston, TX
  Details for Houston, TX Areal Flood Advisory


Thunder radar  blitzortung!


Rain radar more information rain snow radar


Visit our other weather sites:

Template documentation
and downloads

And another site



Weather Underground History page Text

Daily Summary for May 18, 2017 Units:  Metric    English   Both
« Previous Day
Next Day »
Daily Weekly Monthly Yearly Custom
  High: Low: Average:
Temperature: -17.8 °C 25.2 °C 27.8 °C
Dew Point: -17.8 °C 20.9 °C 23 °C
Humidity: Humidity % 54 % 76 %
Wind Speed: 0 km/h 1.6 km/h 11.1 km/h
Wind Gust: 0 km/h - -
Wind:- - SE
Pressure: 0 hPa 1007.3 hPa -
Precipitation: 0 mm    
Historical Graphs
 
 
Tabular Data for May 18, 2017
Time Temperature Dew Point Pressure Wind Wind Speed Wind Gust Humidity Rainfall Rate (Hourly)
-17.8 °C -17.8 °C 0 hPa Calm     Humidity % 0 mm
00:01 26.4 °C 23.9 °C 1009.4 hPa SE 4.8 km/h 14.5 km/h 86 % 0 mm
00:06 26.4 °C 24.1 °C 1009.4 hPa SSE 17.7 km/h 17.7 km/h 87 % 0 mm
00:11 26.4 °C 23.9 °C 1009.4 hPa SE 6.4 km/h 17.7 km/h 86 % 0 mm
00:16 26.4 °C 24.1 °C 1009 hPa ESE 4.8 km/h 17.7 km/h 87 % 0 mm
00:21 26.3 °C 24 °C 1009 hPa SSE 6.4 km/h 17.7 km/h 87 % 0 mm
00:23 26.3 °C 24 °C 1009 hPa SE 6.4 km/h 17.7 km/h 87 % 0 mm
00:28 26.3 °C 24 °C 1009.4 hPa SE 3.2 km/h 12.9 km/h 87 % 0 mm
00:33 26.2 °C 23.9 °C 1009.4 hPa SE 6.4 km/h 12.9 km/h 87 % 0 mm
00:38 26.2 °C 23.9 °C 1009.4 hPa South 4.8 km/h 12.9 km/h 87 % 0 mm
00:43 26.2 °C 23.9 °C 1009 hPa SSE 4.8 km/h 12.9 km/h 87 % 0 mm
00:48 26.1 °C 24 °C 1009.4 hPa East 9.7 km/h 14.5 km/h 88 % 0 mm
00:53 26 °C 23.9 °C 1009 hPa ESE 8 km/h 14.5 km/h 88 % 0 mm
00:58 26 °C 23.9 °C 1009 hPa SSE 8 km/h 14.5 km/h 88 % 0 mm
01:03 25.9 °C 23.8 °C 1009 hPa SE 4.8 km/h 16.1 km/h 88 % 0 mm
01:08 25.9 °C 23.9 °C 1009 hPa ESE 11.3 km/h 16.1 km/h 89 % 0 mm
01:13 25.9 °C 23.9 °C 1009 hPa SSE 6.4 km/h 16.1 km/h 89 % 0 mm
01:18 25.9 °C 23.9 °C 1009 hPa SE 12.9 km/h 12.9 km/h 89 % 0 mm
01:23 25.9 °C 23.9 °C 1009 hPa ESE 9.7 km/h 16.1 km/h 89 % 0 mm
01:28 25.9 °C 23.9 °C 1009 hPa SE 4.8 km/h 16.1 km/h 89 % 0 mm
01:33 25.9 °C 23.9 °C 1009 hPa ESE 6.4 km/h 16.1 km/h 89 % 0 mm
01:38 25.9 °C 23.9 °C 1009 hPa ESE 9.7 km/h 16.1 km/h 89 % 0 mm
01:43 25.9 °C 23.9 °C 1009 hPa SE 9.7 km/h 16.1 km/h 89 % 0 mm
01:48 26 °C 24 °C 1009 hPa SSE 9.7 km/h 16.1 km/h 89 % 0 mm
01:53 26.1 °C 24.1 °C 1009 hPa SSE 9.7 km/h 16.1 km/h 89 % 0 mm
01:58 26.1 °C 24.1 °C 1009 hPa South 4.8 km/h 17.7 km/h 89 % 0 mm
01:59 26.1 °C 24.1 °C 1009 hPa SSE 6.4 km/h 17.7 km/h 89 % 0 mm
02:04 26.1 °C 24 °C 1008.7 hPa SE 4.8 km/h 17.7 km/h 88 % 0 mm
02:09 26.1 °C 24 °C 1009 hPa ESE 11.3 km/h 17.7 km/h 88 % 0 mm
02:14 26.1 °C 24 °C 1009 hPa SE 6.4 km/h 16.1 km/h 88 % 0 mm
02:19 26.1 °C 24 °C 1009 hPa SSE 3.2 km/h 14.5 km/h 88 % 0 mm
02:24 26.1 °C 24 °C 1009 hPa SE 4.8 km/h 16.1 km/h 88 % 0 mm
02:29 26.1 °C 24 °C 1009 hPa East 6.4 km/h 16.1 km/h 88 % 0 mm
02:34 26.1 °C 24 °C 1009 hPa SE 6.4 km/h 16.1 km/h 88 % 0 mm
02:39 26 °C 24 °C 1009 hPa South 8 km/h 14.5 km/h 89 % 0 mm
02:44 25.9 °C 23.9 °C 1008.7 hPa SSE 6.4 km/h 16.1 km/h 89 % 0 mm
02:49 25.9 °C 23.9 °C 1009 hPa ESE 6.4 km/h 16.1 km/h 89 % 0 mm
02:54 25.9 °C 23.9 °C 1008.7 hPa SSE 3.2 km/h 16.1 km/h 89 % 0 mm
02:59 25.9 °C 23.9 °C 1008.7 hPa ESE 3.2 km/h 14.5 km/h 89 % 0 mm
03:04 25.8 °C 24 °C 1008.7 hPa SE 6.4 km/h 14.5 km/h 90 % 0 mm
03:09 25.8 °C 24 °C 1008.7 hPa SE 6.4 km/h 11.3 km/h 90 % 0 mm
03:14 25.8 °C 24 °C 1008.7 hPa SE 8 km/h 12.9 km/h 90 % 0 mm
03:19 25.8 °C 24 °C 1008.4 hPa SSE 6.4 km/h 12.9 km/h 90 % 0 mm
03:24 25.8 °C 24 °C 1008.4 hPa SE 6.4 km/h 16.1 km/h 90 % 0 mm
03:29 25.8 °C 24 °C 1008.4 hPa SE 11.3 km/h 16.1 km/h 90 % 0 mm
03:34 25.7 °C 24.1 °C 1008.4 hPa SSE 8 km/h 16.1 km/h 91 % 0 mm
03:39 25.6 °C 24 °C 1008.4 hPa SE 6.4 km/h 14.5 km/h 91 % 0 mm
03:44 25.5 °C 23.9 °C 1008.4 hPa South 6.4 km/h 14.5 km/h 91 % 0 mm
03:49 25.5 °C 24.1 °C 1008.4 hPa South 1.6 km/h 11.3 km/h 92 % 0 mm
03:54 25.4 °C 24 °C 1008.4 hPa SSE 4.8 km/h 11.3 km/h 92 % 0 mm
03:59 25.4 °C 24 °C 1008.4 hPa SE 6.4 km/h 11.3 km/h 92 % 0 mm
04:04 25.4 °C 24 °C 1008.4 hPa South 1.6 km/h 11.3 km/h 92 % 0 mm
04:09 25.4 °C 24 °C 1008.4 hPa South 4.8 km/h 11.3 km/h 92 % 0 mm
04:14 25.4 °C 24 °C 1008.7 hPa ESE 6.4 km/h 11.3 km/h 92 % 0 mm
04:19 25.4 °C 24 °C 1008.4 hPa SE 4.8 km/h 11.3 km/h 92 % 0 mm
04:24 25.4 °C 24 °C 1008.4 hPa SSE 4.8 km/h 11.3 km/h 92 % 0 mm
04:29 25.4 °C 24 °C 1008.4 hPa South 8 km/h 11.3 km/h 92 % 0 mm
04:34 25.4 °C 24 °C 1008.4 hPa SSE 4.8 km/h 16.1 km/h 92 % 0 mm
04:39 25.4 °C 24 °C 1008.4 hPa SSE 6.4 km/h 16.1 km/h 92 % 0 mm
04:44 25.4 °C 24 °C 1008.4 hPa ESE 6.4 km/h 14.5 km/h 92 % 0 mm
04:49 25.4 °C 23.8 °C 1008.4 hPa SSE 8 km/h 17.7 km/h 91 % 0 mm
04:54 25.4 °C 23.8 °C 1008.4 hPa SSE 6.4 km/h 17.7 km/h 91 % 0 mm
04:59 25.4 °C 23.8 °C 1008.4 hPa South 4.8 km/h 17.7 km/h 91 % 0 mm
05:04 25.4 °C 23.8 °C 1008.4 hPa SE 11.3 km/h 16.1 km/h 91 % 0 mm
05:09 25.4 °C 23.8 °C 1008.4 hPa South 9.7 km/h 17.7 km/h 91 % 0 mm
05:14 25.4 °C 23.8 °C 1008.4 hPa East 14.5 km/h 17.7 km/h 91 % 0 mm
05:19 25.4 °C 23.8 °C 1008.4 hPa ESE 6.4 km/h 17.7 km/h 91 % 0 mm
05:24 25.3 °C 23.7 °C 1008.4 hPa SE 6.4 km/h 17.7 km/h 91 % 0 mm
05:29 25.3 °C 23.7 °C 1008.4 hPa SE 8 km/h 16.1 km/h 91 % 0 mm
05:34 25.3 °C 23.7 °C 1008.4 hPa SE 6.4 km/h 16.1 km/h 91 % 0 mm
05:39 25.3 °C 23.7 °C 1008.4 hPa SSE 6.4 km/h 16.1 km/h 91 % 0 mm
05:44 25.3 °C 23.7 °C 1008.4 hPa SE 4.8 km/h 16.1 km/h 91 % 0 mm
05:50 25.3 °C 23.7 °C 1008.4 hPa ESE 8 km/h 14.5 km/h 91 % 0 mm
05:54 25.3 °C 23.7 °C 1008.4 hPa ESE 9.7 km/h 14.5 km/h 91 % 0 mm
05:59 25.2 °C 23.6 °C 1008.7 hPa SSE 6.4 km/h 14.5 km/h 91 % 0 mm
06:05 25.3 °C 23.7 °C 1008.7 hPa SE 9.7 km/h 14.5 km/h 91 % 0 mm
06:10 25.3 °C 23.7 °C 1008.7 hPa ESE 8 km/h 14.5 km/h 91 % 0 mm
06:15 25.3 °C 23.7 °C 1008.7 hPa SE 9.7 km/h 14.5 km/h 91 % 0 mm
06:20 25.2 °C 23.6 °C 1008.7 hPa SE 12.9 km/h 16.1 km/h 91 % 0 mm
06:25 25.3 °C 23.7 °C 1008.7 hPa SSE 6.4 km/h 16.1 km/h 91 % 0 mm
06:30 25.2 °C 23.6 °C 1008.7 hPa South 4.8 km/h 17.7 km/h 91 % 0 mm
06:35 25.2 °C 23.6 °C 1008.7 hPa East 8 km/h 17.7 km/h 91 % 0 mm
06:40 25.2 °C 23.6 °C 1009 hPa ESE 6.4 km/h 12.9 km/h 91 % 0 mm
06:45 25.2 °C 23.6 °C 1008.7 hPa ESE 4.8 km/h 17.7 km/h 91 % 0 mm
06:50 25.2 °C 23.6 °C 1009 hPa SE 6.4 km/h 17.7 km/h 91 % 0 mm
06:55 25.2 °C 23.6 °C 1009 hPa SE 9.7 km/h 17.7 km/h 91 % 0 mm
07:00 25.2 °C 23.6 °C 1009 hPa SSE 12.9 km/h 17.7 km/h 91 % 0 mm
07:10 25.3 °C 23.5 °C 1009 hPa SE 8 km/h 19.3 km/h 90 % 0 mm
07:15 25.4 °C 23.6 °C 1009 hPa SE 11.3 km/h 19.3 km/h 90 % 0 mm
07:20 25.4 °C 23.6 °C 1009 hPa SE 8 km/h 19.3 km/h 90 % 0 mm
07:25 25.5 °C 23.7 °C 1009 hPa East 3.2 km/h 19.3 km/h 90 % 0 mm
07:30 25.6 °C 23.6 °C 1009 hPa ESE 6.4 km/h 14.5 km/h 89 % 0 mm
07:35 25.6 °C 23.6 °C 1009 hPa ESE 8 km/h 17.7 km/h 89 % 0 mm
07:40 25.7 °C 23.6 °C 1009 hPa ESE 9.7 km/h 17.7 km/h 88 % 0 mm
07:45 25.7 °C 23.6 °C 1009.4 hPa SSE 14.5 km/h 20.9 km/h 88 % 0 mm
07:50 25.8 °C 23.7 °C 1009.4 hPa SE 9.7 km/h 20.9 km/h 88 % 0 mm
07:55 25.9 °C 23.6 °C 1009.4 hPa SSE 16.1 km/h 20.9 km/h 87 % 0 mm
08:00 25.9 °C 23.6 °C 1009.4 hPa ESE 9.7 km/h 17.7 km/h 87 % 0 mm
08:05 26.1 °C 23.8 °C 1009.4 hPa SW 9.7 km/h 17.7 km/h 87 % 0 mm
08:10 26.1 °C 23.6 °C 1009.4 hPa SSE 12.9 km/h 17.7 km/h 86 % 0 mm
08:15 26.1 °C 23.6 °C 1009.7 hPa SSE 6.4 km/h 19.3 km/h 86 % 0 mm
08:20 26.1 °C 23.6 °C 1009.7 hPa SSE 9.7 km/h 19.3 km/h 86 % 0 mm
08:25 26.2 °C 23.5 °C 1009.7 hPa SE 11.3 km/h 19.3 km/h 85 % 0 mm
08:30 26.2 °C 23.5 °C 1009.7 hPa SSE 14.5 km/h 19.3 km/h 85 % 0 mm
08:35 26.2 °C 23.5 °C 1009.7 hPa SE 9.7 km/h 19.3 km/h 85 % 0 mm
08:40 26.2 °C 23.3 °C 1010 hPa ESE 16.1 km/h 19.3 km/h 84 % 0 mm
08:45 26.2 °C 23.3 °C 1010 hPa ESE 9.7 km/h 19.3 km/h 84 % 0 mm
08:51 26.2 °C 23.3 °C 1010 hPa East 9.7 km/h 17.7 km/h 84 % 0 mm
08:56 26.2 °C 23.3 °C 1010 hPa East 4.8 km/h 20.9 km/h 84 % 0 mm
09:01 26.2 °C 23.3 °C 1010 hPa South 4.8 km/h 20.9 km/h 84 % 0 mm
09:06 26.3 °C 23.4 °C 1010 hPa ESE 9.7 km/h 20.9 km/h 84 % 0 mm
09:11 26.3 °C 23.2 °C 1010 hPa SSE 11.3 km/h 16.1 km/h 83 % 0 mm
09:16 26.3 °C 23.2 °C 1010 hPa SSE 6.4 km/h 16.1 km/h 83 % 0 mm
09:21 26.3 °C 23.2 °C 1010.4 hPa SE 4.8 km/h 12.9 km/h 83 % 0 mm
09:26 26.4 °C 23.3 °C 1010.4 hPa SSE 8 km/h 12.9 km/h 83 % 0 mm
09:31 26.4 °C 23.1 °C 1010.4 hPa ESE 4.8 km/h 14.5 km/h 82 % 0 mm
09:36 26.6 °C 23.3 °C 1010.4 hPa ESE 16.1 km/h 16.1 km/h 82 % 0 mm
09:41 26.6 °C 23.3 °C 1010.4 hPa SE 6.4 km/h 20.9 km/h 82 % 0 mm
09:46 26.7 °C 23.2 °C 1010 hPa ESE 6.4 km/h 20.9 km/h 81 % 0 mm
09:51 26.7 °C 23.2 °C 1010.4 hPa ESE 8 km/h 20.9 km/h 81 % 0 mm
09:56 26.8 °C 23.3 °C 1010.4 hPa SE 8 km/h 17.7 km/h 81 % 0 mm
10:01 27.1 °C 23.3 °C 1010.4 hPa South 14.5 km/h 16.1 km/h 80 % 0 mm
10:06 27.1 °C 23.3 °C 1010.4 hPa SE 8 km/h 19.3 km/h 80 % 0 mm
10:11 27.2 °C 23.4 °C 1010.4 hPa SSE 12.9 km/h 19.3 km/h 80 % 0 mm
10:16 27.3 °C 23.3 °C 1010.4 hPa SE 4.8 km/h 20.9 km/h 79 % 0 mm
10:21 27.6 °C 23.6 °C 1010.7 hPa SSE 4.8 km/h 20.9 km/h 79 % 0 mm
10:26 27.7 °C 23.7 °C 1010.4 hPa East 6.4 km/h 20.9 km/h 79 % 0 mm
10:31 27.7 °C 23.3 °C 1010.4 hPa SE 12.9 km/h 16.1 km/h 77 % 0 mm
10:36 27.8 °C 23.4 °C 1010.4 hPa ESE 6.4 km/h 16.1 km/h 77 % 0 mm
10:37 27.8 °C 23.6 °C 1010.4 hPa SW 9.7 km/h 16.1 km/h 78 % 0 mm
10:42 27.9 °C 23.5 °C 1010.4 hPa SE 8 km/h 24.1 km/h 77 % 0 mm
10:47 28.3 °C 23.7 °C 1010.4 hPa SSE 6.4 km/h 24.1 km/h 76 % 0 mm
10:52 28.5 °C 23.6 °C 1010.4 hPa SSE 11.3 km/h 24.1 km/h 75 % 0 mm
10:57 28.6 °C 23.5 °C 1010.4 hPa SE 12.9 km/h 25.7 km/h 74 % 0 mm
11:02 28.9 °C 23.8 °C 1010 hPa SE 9.7 km/h 25.7 km/h 74 % 0 mm
11:07 29.1 °C 23.8 °C 1010 hPa SE 11.3 km/h 25.7 km/h 73 % 0 mm
11:12 29.1 °C 23.5 °C 1010 hPa SSW 11.3 km/h 20.9 km/h 72 % 0 mm
11:17 29.5 °C 23.9 °C 1010 hPa SE 9.7 km/h 22.5 km/h 72 % 0 mm
11:22 30.1 °C 23.8 °C 1010 hPa SSE 8 km/h 24.1 km/h 69 % 0 mm
11:27 30.3 °C 23.5 °C 1010 hPa SSE 16.1 km/h 24.1 km/h 67 % 0 mm
11:32 30.4 °C 23.6 °C 1010 hPa SE 24.1 km/h 24.1 km/h 67 % 0 mm
11:37 30.3 °C 23.5 °C 1010 hPa SSE 12.9 km/h 24.1 km/h 67 % 0 mm
11:42 30.3 °C 23.2 °C 1010 hPa SSE 16.1 km/h 24.1 km/h 66 % 0 mm
11:47 30.3 °C 23.5 °C 1010 hPa SE 14.5 km/h 24.1 km/h 67 % 0 mm
11:52 30.4 °C 23.3 °C 1010 hPa SE 16.1 km/h 24.1 km/h 66 % 0 mm
11:57 30.4 °C 23.3 °C 1010 hPa SE 12.9 km/h 25.7 km/h 66 % 0 mm
12:02 30.4 °C 23.6 °C 1010 hPa East 9.7 km/h 25.7 km/h 67 % 0 mm
12:07 30.8 °C 23.7 °C 1010 hPa SSE 8 km/h 27.4 km/h 66 % 0 mm
12:12 30.9 °C 23.5 °C 1010 hPa SE 11.3 km/h 27.4 km/h 65 % 0 mm
12:17 31.2 °C 23.8 °C 1010 hPa ESE 11.3 km/h 27.4 km/h 65 % 0 mm
12:22 31.2 °C 23.8 °C 1010 hPa SSW 16.1 km/h 22.5 km/h 65 % 0 mm
12:27 31.4 °C 23.8 °C 1010 hPa SSE 9.7 km/h 25.7 km/h 64 % 0 mm
12:32 31.5 °C 23.9 °C 1010 hPa South 11.3 km/h 25.7 km/h 64 % 0 mm
12:37 31.7 °C 23.8 °C 1010 hPa South 14.5 km/h 25.7 km/h 63 % 0 mm
12:42 31.6 °C 23.7 °C 1010 hPa SE 9.7 km/h 29 km/h 63 % 0 mm
12:47 31.4 °C 23.8 °C 1010 hPa South 17.7 km/h 29 km/h 64 % 0 mm
12:52 31.4 °C 23.5 °C 1010 hPa South 16.1 km/h 29 km/h 63 % 0 mm
12:57 31.5 °C 23.6 °C 1010 hPa SSW 22.5 km/h 27.4 km/h 63 % 0 mm
13:02 31.6 °C 24 °C 1010 hPa SSE 16.1 km/h 27.4 km/h 64 % 0 mm
13:07 31.6 °C 23.7 °C 1009.7 hPa South 12.9 km/h 27.4 km/h 63 % 0 mm
13:12 31.5 °C 23.6 °C 1009.7 hPa SSW 8 km/h 25.7 km/h 63 % 0 mm
13:17 31.8 °C 23.9 °C 1009.7 hPa SE 9.7 km/h 25.7 km/h 63 % 0 mm
13:22 32.1 °C 23.4 °C 1009.7 hPa SE 17.7 km/h 25.7 km/h 60 % 0 mm
13:27 32.2 °C 23.4 °C 1009.7 hPa SE 14.5 km/h 25.7 km/h 60 % 0 mm
13:32 32 °C 23.5 °C 1009.4 hPa SW 12.9 km/h 27.4 km/h 61 % 0 mm
13:37 32.3 °C 22.7 °C 1009.4 hPa South 17.7 km/h 27.4 km/h 57 % 0 mm
13:42 32.4 °C 23.1 °C 1009.4 hPa SE 12.9 km/h 27.4 km/h 58 % 0 mm
13:47 32.3 °C 23.3 °C 1009.4 hPa ESE 8 km/h 25.7 km/h 59 % 0 mm
13:52 32.6 °C 22.7 °C 1009.4 hPa SE 14.5 km/h 30.6 km/h 56 % 0 mm
13:57 32.4 °C 22.8 °C 1009.4 hPa SE 11.3 km/h 30.6 km/h 57 % 0 mm
14:02 32.6 °C 23.3 °C 1009.4 hPa SE 19.3 km/h 30.6 km/h 58 % 0 mm
14:07 32.6 °C 23 °C 1009.4 hPa ESE 24.1 km/h 30.6 km/h 57 % 0 mm
14:17 32.9 °C 23.2 °C 1009 hPa SE 12.9 km/h 35.4 km/h 57 % 0 mm
14:22 32.4 °C 22.8 °C 1009 hPa East 24.1 km/h 35.4 km/h 57 % 0 mm
14:27 32.3 °C 23 °C 1009 hPa ESE 19.3 km/h 29 km/h 58 % 0 mm
14:32 32.3 °C 22.4 °C 1009 hPa SSE 11.3 km/h 29 km/h 56 % 0 mm
14:37 32.5 °C 22.9 °C 1009 hPa East 11.3 km/h 29 km/h 57 % 0 mm
14:42 32.6 °C 23 °C 1009 hPa SSE 6.4 km/h 32.2 km/h 57 % 0 mm
14:47 32.4 °C 22.5 °C 1009 hPa SE 16.1 km/h 32.2 km/h 56 % 0 mm
14:52 32.3 °C 23 °C 1009 hPa ESE 24.1 km/h 32.2 km/h 58 % 0 mm
14:57 32 °C 22.4 °C 1009 hPa ESE 17.7 km/h 29 km/h 57 % 0 mm
15:02 32 °C 21.8 °C 1009 hPa South 9.7 km/h 25.7 km/h 55 % 0 mm
15:07 32.3 °C 22.1 °C 1009 hPa SE 14.5 km/h 30.6 km/h 55 % 0 mm
15:12 32.6 °C 22.4 °C 1009 hPa ESE 16.1 km/h 32.2 km/h 55 % 0 mm
15:17 32.9 °C 22.4 °C 1009 hPa SSE 14.5 km/h 32.2 km/h 54 % 0 mm
15:22 32.4 °C 22.2 °C 1009 hPa SE 11.3 km/h 32.2 km/h 55 % 0 mm
15:27 31.9 °C 22.3 °C 1009 hPa SE 16.1 km/h 30.6 km/h 57 % 0 mm
15:32 31.6 °C 22 °C 1008.7 hPa SSE 14.5 km/h 30.6 km/h 57 % 0 mm
15:37 31.5 °C 22.2 °C 1009 hPa South 11.3 km/h 30.6 km/h 58 % 0 mm
15:42 31.6 °C 22.6 °C 1009 hPa SE 24.1 km/h 29 km/h 59 % 0 mm
15:47 31.6 °C 22.3 °C 1008.7 hPa SSW 9.7 km/h 30.6 km/h 58 % 0 mm
15:52 31.7 °C 22.4 °C 1008.7 hPa SE 24.1 km/h 30.6 km/h 58 % 0 mm
15:57 31.8 °C 22.5 °C 1008.7 hPa SE 12.9 km/h 30.6 km/h 58 % 0 mm
16:02 31.8 °C 21.9 °C 1008.7 hPa South 25.7 km/h 27.4 km/h 56 % 0 mm
16:07 31.8 °C 21.6 °C 1008.7 hPa SSE 17.7 km/h 30.6 km/h 55 % 0 mm
16:08 31.8 °C 21.6 °C 1008.7 hPa SE 19.3 km/h 30.6 km/h 55 % 0 mm
16:13 31.8 °C 22.2 °C 1008.7 hPa ESE 22.5 km/h 30.6 km/h 57 % 0 mm
16:23 31.8 °C 22.2 °C 1008.4 hPa SE 17.7 km/h 29 km/h 57 % 0 mm
16:28 31.7 °C 22.1 °C 1008.4 hPa ESE 17.7 km/h 29 km/h 57 % 0 mm
16:33 31.4 °C 22.1 °C 1008.4 hPa SE 14.5 km/h 30.6 km/h 58 % 0 mm
16:38 31.2 °C 21.7 °C 1008.4 hPa South 12.9 km/h 32.2 km/h 57 % 0 mm
16:43 31.5 °C 21.9 °C 1008.4 hPa SE 19.3 km/h 32.2 km/h 57 % 0 mm
16:48 31.5 °C 21.9 °C 1008.4 hPa SE 14.5 km/h 32.2 km/h 57 % 0 mm
16:53 31.8 °C 21.9 °C 1008.4 hPa SSE 20.9 km/h 30.6 km/h 56 % 0 mm
16:58 31.6 °C 22.3 °C 1008.4 hPa ESE 11.3 km/h 29 km/h 58 % 0 mm
17:03 31.6 °C 22 °C 1008.4 hPa East 16.1 km/h 27.4 km/h 57 % 0 mm
17:08 31.3 °C 22.3 °C 1008.4 hPa SE 17.7 km/h 30.6 km/h 59 % 0 mm
17:13 30.7 °C 21.5 °C 1008.4 hPa SSE 11.3 km/h 30.6 km/h 58 % 0 mm
17:18 30.4 °C 21.8 °C 1008.4 hPa SE 8 km/h 30.6 km/h 60 % 0 mm
17:23 30.6 °C 22.2 °C 1008.4 hPa SE 9.7 km/h 30.6 km/h 61 % 0 mm
17:28 30.7 °C 22 °C 1008.4 hPa SSW 11.3 km/h 29 km/h 60 % 0 mm
17:33 30.8 °C 22.1 °C 1008.4 hPa SSE 25.7 km/h 30.6 km/h 60 % 0 mm
17:38 30.6 °C 22.2 °C 1008.4 hPa ESE 17.7 km/h 30.6 km/h 61 % 0 mm
17:43 30.4 °C 22 °C 1008.4 hPa ESE 25.7 km/h 30.6 km/h 61 % 0 mm
17:48 30.5 °C 22.1 °C 1008 hPa East 25.7 km/h 27.4 km/h 61 % 0 mm
17:53 30.3 °C 21.9 °C 1008 hPa ESE 16.1 km/h 29 km/h 61 % 0 mm
17:58 30.3 °C 21.9 °C 1008.4 hPa ESE 17.7 km/h 29 km/h 61 % 0 mm
18:03 30.3 °C 21.4 °C 1008.4 hPa East 25.7 km/h 29 km/h 59 % 0 mm
18:08 30.3 °C 21.9 °C 1008.4 hPa SE 19.3 km/h 30.6 km/h 61 % 0 mm
18:13 30.2 °C 21.6 °C 1008 hPa ESE 17.7 km/h 30.6 km/h 60 % 0 mm
18:18 30.1 °C 21.5 °C 1008 hPa SSE 12.9 km/h 30.6 km/h 60 % 0 mm
18:23 30.1 °C 21.5 °C 1008 hPa SE 19.3 km/h 25.7 km/h 60 % 0 mm
18:28 30.1 °C 21.7 °C 1008 hPa South 4.8 km/h 25.7 km/h 61 % 0 mm
18:33 29.9 °C 21.6 °C 1008 hPa SE 12.9 km/h 25.7 km/h 61 % 0 mm
18:38 29.9 °C 21.6 °C 1008 hPa SE 17.7 km/h 25.7 km/h 61 % 0 mm
18:43 29.9 °C 21.3 °C 1008 hPa SSW 14.5 km/h 29 km/h 60 % 0 mm
18:48 29.9 °C 21.6 °C 1008 hPa SE 20.9 km/h 29 km/h 61 % 0 mm
18:53 29.8 °C 22 °C 1008 hPa SE 9.7 km/h 29 km/h 63 % 0 mm
18:58 29.7 °C 21.6 °C 1007.7 hPa SSE 14.5 km/h 29 km/h 62 % 0 mm
19:03 29.5 °C 21.4 °C 1007.7 hPa SE 12.9 km/h 29 km/h 62 % 0 mm
19:08 29.3 °C 21.3 °C 1007.7 hPa SE 14.5 km/h 29 km/h 62 % 0 mm
19:13 29.3 °C 21.5 °C 1007.7 hPa ESE 14.5 km/h 29 km/h 63 % 0 mm
19:18 29.1 °C 21.1 °C 1007.3 hPa SE 17.7 km/h 29 km/h 62 % 0 mm
19:23 28.9 °C 20.9 °C 1007.7 hPa East 30.6 km/h 30.6 km/h 62 % 0 mm
19:28 28.7 °C 21 °C 1007.7 hPa ESE 22.5 km/h 30.6 km/h 63 % 0 mm
19:33 28.6 °C 21.4 °C 1007.7 hPa South 11.3 km/h 32.2 km/h 65 % 0 mm
19:38 28.5 °C 21 °C 1007.7 hPa SE 17.7 km/h 32.2 km/h 64 % 0 mm
19:43 28.4 °C 21.2 °C 1007.3 hPa SSW 11.3 km/h 33.8 km/h 65 % 0 mm
19:48 28.3 °C 21.1 °C 1007.3 hPa SE 9.7 km/h 33.8 km/h 65 % 0 mm
19:53 28.2 °C 21.5 °C 1007.7 hPa ESE 16.1 km/h 33.8 km/h 67 % 0 mm
19:58 28.1 °C 21.6 °C 1007.7 hPa East 17.7 km/h 24.1 km/h 68 % 0 mm
20:03 28 °C 21.8 °C 1007.7 hPa SSE 11.3 km/h 29 km/h 69 % 0 mm
20:08 27.8 °C 21.8 °C 1007.7 hPa SSE 20.9 km/h 29 km/h 70 % 0 mm
20:13 27.7 °C 22 °C 1007.7 hPa SE 12.9 km/h 30.6 km/h 71 % 0 mm
20:18 27.6 °C 22.1 °C 1007.3 hPa SE 9.7 km/h 30.6 km/h 72 % 0 mm
20:23 27.6 °C 22.1 °C 1007.7 hPa SSE 9.7 km/h 30.6 km/h 72 % 0 mm
20:28 27.5 °C 22.2 °C 1007.7 hPa ESE 17.7 km/h 30.6 km/h 73 % 0 mm
20:33 27.4 °C 22.4 °C 1008 hPa SSE 8 km/h 30.6 km/h 74 % 0 mm
20:35 27.4 °C 22.4 °C 1008 hPa SE 11.3 km/h 27.4 km/h 74 % 0 mm
20:40 27.3 °C 22.3 °C 1008.4 hPa SSE 6.4 km/h 27.4 km/h 74 % 0 mm
20:45 27.3 °C 22.5 °C 1008.4 hPa SE 3.2 km/h 27.4 km/h 75 % 0 mm
20:50 27.3 °C 22.5 °C 1008.4 hPa SE 11.3 km/h 22.5 km/h 75 % 0 mm
20:55 27.3 °C 22.7 °C 1008.7 hPa ENE 8 km/h 22.5 km/h 76 % 0 mm
21:00 27.2 °C 22.6 °C 1008.7 hPa SE 9.7 km/h 16.1 km/h 76 % 0 mm
21:10 27.1 °C 22.7 °C 1008.4 hPa ESE 9.7 km/h 17.7 km/h 77 % 0 mm
21:15 27 °C 22.8 °C 1008.7 hPa ESE 9.7 km/h 17.7 km/h 78 % 0 mm
21:20 26.9 °C 22.7 °C 1008.7 hPa ESE 6.4 km/h 16.1 km/h 78 % 0 mm
21:25 26.9 °C 22.7 °C 1008.7 hPa SSE 16.1 km/h 24.1 km/h 78 % 0 mm
21:30 26.8 °C 22.6 °C 1008.7 hPa SE 9.7 km/h 24.1 km/h 78 % 0 mm
21:35 26.8 °C 22.6 °C 1008.7 hPa SE 6.4 km/h 24.1 km/h 78 % 0 mm
21:40 26.8 °C 22.8 °C 1008.7 hPa SE 11.3 km/h 19.3 km/h 79 % 0 mm
21:45 26.8 °C 22.8 °C 1008.7 hPa SSW 8 km/h 22.5 km/h 79 % 0 mm
21:50 26.8 °C 22.8 °C 1008.7 hPa SSE 8 km/h 22.5 km/h 79 % 0 mm
21:56 26.7 °C 23 °C 1008.7 hPa SE 6.4 km/h 22.5 km/h 80 % 0 mm
22:01 26.7 °C 23 °C 1008.4 hPa South 14.5 km/h 19.3 km/h 80 % 0 mm
22:06 26.7 °C 23 °C 1008.4 hPa South 9.7 km/h 19.3 km/h 80 % 0 mm
22:11 26.7 °C 23 °C 1008.7 hPa SE 14.5 km/h 17.7 km/h 80 % 0 mm
22:16 26.7 °C 23.2 °C 1008.7 hPa ESE 9.7 km/h 19.3 km/h 81 % 0 mm
22:21 26.7 °C 23.2 °C 1008.7 hPa ESE 14.5 km/h 19.3 km/h 81 % 0 mm
22:26 26.7 °C 23.2 °C 1008.7 hPa SE 4.8 km/h 19.3 km/h 81 % 0 mm
22:31 26.7 °C 23.2 °C 1008.7 hPa SE 12.9 km/h 29 km/h 81 % 0 mm
22:36 26.6 °C 23.1 °C 1008.7 hPa SE 16.1 km/h 29 km/h 81 % 0 mm
22:41 26.6 °C 23.3 °C 1008.7 hPa SE 8 km/h 29 km/h 82 % 0 mm
22:46 26.5 °C 23.2 °C 1009 hPa SE 19.3 km/h 22.5 km/h 82 % 0 mm
22:51 26.5 °C 23.2 °C 1009 hPa SSE 6.4 km/h 24.1 km/h 82 % 0 mm
22:56 26.5 °C 23.2 °C 1009 hPa SE 16.1 km/h 24.1 km/h 82 % 0 mm
23:01 26.4 °C 23.1 °C 1009 hPa SE 6.4 km/h 24.1 km/h 82 % 0 mm
23:06 26.4 °C 23.3 °C 1009 hPa SE 16.1 km/h 22.5 km/h 83 % 0 mm
23:11 26.4 °C 23.3 °C 1009 hPa SSE 14.5 km/h 20.9 km/h 83 % 0 mm
23:16 26.4 °C 23.3 °C 1009 hPa ESE 12.9 km/h 20.9 km/h 83 % 0 mm
23:21 26.4 °C 23.3 °C 1009 hPa SE 9.7 km/h 24.1 km/h 83 % 0 mm
23:26 26.4 °C 23.3 °C 1009 hPa SE 9.7 km/h 24.1 km/h 83 % 0 mm
23:31 26.4 °C 23.3 °C 1009.4 hPa SE 9.7 km/h 24.1 km/h 83 % 0 mm
23:36 26.4 °C 23.1 °C 1009.4 hPa SSE 11.3 km/h 24.1 km/h 82 % 0 mm
23:41 26.4 °C 23.1 °C 1009.4 hPa SE 8 km/h 24.1 km/h 82 % 0 mm
23:43 26.4 °C 23.1 °C 1009.7 hPa SE 8 km/h 24.1 km/h 82 % 0 mm
23:48 26.4 °C 23.1 °C 1009.7 hPa SE 11.3 km/h 24.1 km/h 82 % 0 mm
23:53 26.4 °C 23.3 °C 1009.7 hPa SE 8 km/h 24.1 km/h 83 % 0 mm
23:58 26.4 °C 23.3 °C 1009.7 hPa SSE 8 km/h 19.3 km/h 83 % 0 mm
Spring, Texas: Villages of Bridgestone
Compliments of Weather Underground - 2.75 mb

Script developed by  Jim McMurry - jmcmurry@mwt.net Adapted for the template by  Wim van der Kuil - Leuven-Template.eu

You find our weather info also at:

UK Metoffice

WeatherCloud

Weather Underground

Mid-South Weather Network

AWEKAS

Citizen Weather Observer Program (CWOP)

HAMweather, WeatherForYou, PWS Weather

Equipment we use:

Weather-station
Davis Vantage Vue

Weather-program
Meteohub

Weather-server
Debian 7.9 x86 (Guest)

Provider
DreamHost

Davis Vantage Vue

Meteohub

Debian 7.9 x86 (Guest)

DreamHost